Starlink 34622

operational
NORAD ID: 66015 Int'l Des: 2025-232 Owner: SPXS Country: US Constellation: starlink
LEOCIRCULAR

About Starlink 34622

Description loading...

Live Position

Loading 3D Globe...

Upcoming Passes

Altitude History

Altitude vs Time

uPlot chart will show altitude changes over time

Two-Line Element Set

1 66015U 25232L 25340.81696810 .00060007 00000-0 20210-2 0 9995
2 66015 53.1594 175.4800 0001363 87.7529 272.3628 15.30213324 9208
Epoch: Dec 6, 2025 • Age: 18 hours

Current Status

Altitude 474.8 km
Velocity 7.63 km/s
Sub-Earth Point 15.90°N, 59.99°E
Launch Date Oct 16, 2025
Age 0.1 years
Type internet

Technical Details

Classification Payload
Mass 575.00 kg
Dry Mass 530.00 kg
Total Mass 575.00 kg
Length 0.30 m
Diameter 4.10 m
Span 29.00 m
Shape Box + pan
Manufacturer SPXS
Bus Type Starlink V2MO
Phase Status In Orbit
Owner/State SPXS/US

Large Constellations

Loading constellations...